,

(GMT )
Munich

Weather History for EDDM - April, 2018

Change the Weather History Date:

Monday, April 16, 2018

  Actual Average Record
Temperature  
Mean Temperature 53 °F -  
Max Temperature 60 °F 53 °F 71 °F (2007)
Min Temperature 46 °F 36 °F 30 °F (1997)
Degree Days  
Heating Degree Days 12    
Growing Degree Days 3 (Base 50)    
Moisture  
Dew Point 50 °F    
Average Humidity 83    
Maximum Humidity 100    
Minimum Humidity 67    
Precipitation  
Precipitation 0.00 in - - ()
Sea Level Pressure  
Sea Level Pressure 29.96 in    
Wind  
Wind Speed 6 mph ()    
Max Wind Speed 13 mph    
Max Gust Speed -    
Visibility 6.2 miles    
Events Rain    
Averages and records for this station are not official NWS values.
T = Trace of Precipitation, MM = Missing Value Source: Averaged Metar Reports

Daily Weather History Graph

Daily Weather History Graph

Search for Another Location

Airport or City:

Astronomy

Apr. 16, 2018 Rise Set
Actual Time 6:22 AM CEST 8:04 PM CEST
Civil Twilight 5:49 AM CEST 8:37 PM CEST
Nautical Twilight 5:09 AM CEST 9:18 PM CEST
Astronomical Twilight 4:25 AM CEST 10:02 PM CEST
Moon 6:59 AM CEST (4/16) 8:33 PM CEST (4/16)
Length of Visible Light 14h 48m
Length of Day
13h 42m
New Moon, 0% of the Moon is Illuminated
Apr 16
New Moon
Apr 22
First Quarter
Apr 30
Full
May 8
Last Quarter
May 15
New

Hourly Weather History & Observations

Time (CEST) Temp. Windchill Dew Point Humidity Pressure Visibility Wind Dir Wind Speed Gust Speed Precip Events Conditions
12:20 AM 57.2 °F - 46.4 °F 67% 29.86 in 6.2 mi NNW 3.5 mph - N/A   Mostly Cloudy
12:50 AM 55.4 °F - 48.2 °F 77% 29.83 in - West 3.5 mph - N/A   Clear
1:20 AM 55.4 °F - 46.4 °F 72% 29.83 in - West 5.8 mph - N/A   Clear
1:50 AM 55.4 °F - 48.2 °F 77% 29.83 in - West 5.8 mph - N/A   Clear
2:20 AM 55.4 °F - 46.4 °F 72% 29.83 in 6.2 mi WSW 6.9 mph - N/A   Mostly Cloudy
2:50 AM 55.4 °F - 48.2 °F 77% 29.83 in 6.2 mi West 8.1 mph - N/A   Mostly Cloudy
3:20 AM 55.4 °F - 48.2 °F 77% 29.86 in 6.2 mi WSW 9.2 mph - N/A Rain Light Rain
3:50 AM 55.4 °F - 48.2 °F 77% 29.86 in 6.2 mi West 8.1 mph - N/A Rain Light Rain
4:20 AM 53.6 °F - 50.0 °F 88% 29.86 in 6.2 mi West 6.9 mph - N/A Rain Light Rain
4:50 AM 53.6 °F - 50.0 °F 88% 29.86 in 6.2 mi West 5.8 mph - N/A Rain Light Rain
5:20 AM 53.6 °F - 48.2 °F 82% 29.86 in 6.2 mi WSW 3.5 mph - N/A Rain Light Rain
5:50 AM 51.8 °F - 48.2 °F 88% 29.86 in 6.2 mi West 3.5 mph - N/A Rain Light Rain
6:20 AM 53.6 °F - 48.2 °F 82% 29.86 in 6.2 mi West 3.5 mph - N/A   Mostly Cloudy
6:50 AM 51.8 °F - 48.2 °F 88% 29.89 in 6.2 mi SW 3.5 mph - N/A Rain Light Rain
7:20 AM 53.6 °F - 48.2 °F 82% 29.89 in 6.2 mi WSW 5.8 mph - N/A Rain Light Rain
7:50 AM 53.6 °F - 48.2 °F 82% 29.92 in 6.2 mi SW 10.4 mph - N/A Rain Light Rain
8:20 AM 53.6 °F - 50.0 °F 88% 29.92 in 6.2 mi SW 9.2 mph - N/A Rain Light Rain
8:50 AM 53.6 °F - 50.0 °F 88% 29.92 in 6.2 mi WSW 9.2 mph - N/A Rain Light Rain
9:20 AM 53.6 °F - 50.0 °F 88% 29.92 in 6.2 mi WSW 12.7 mph - N/A Rain Light Rain
9:50 AM 53.6 °F - 51.8 °F 94% 29.92 in 6.2 mi WSW 10.4 mph - N/A Rain Light Rain
10:20 AM 53.6 °F - 50.0 °F 88% 29.95 in 6.2 mi WSW 10.4 mph - N/A Rain Light Rain
10:50 AM 53.6 °F - 51.8 °F 94% 29.95 in 6.2 mi WSW 9.2 mph - N/A Rain Light Rain
11:20 AM 55.4 °F - 51.8 °F 88% 29.95 in 6.2 mi West 8.1 mph - N/A Rain Light Rain
11:50 AM 55.4 °F - 50.0 °F 82% 29.98 in 6.2 mi West 8.1 mph - N/A   Mostly Cloudy
12:20 PM 57.2 °F - 50.0 °F 77% 29.98 in 6.2 mi West 5.8 mph - N/A   Mostly Cloudy
1:20 PM 57.2 °F - 50.0 °F 77% 29.98 in 6.2 mi WNW 8.1 mph - N/A   Mostly Cloudy
1:50 PM 59.0 °F - 51.8 °F 77% 29.98 in 6.2 mi WNW 5.8 mph - N/A   Mostly Cloudy
2:20 PM 59.0 °F - 50.0 °F 72% 29.98 in 6.2 mi West 5.8 mph - N/A   Mostly Cloudy
2:50 PM 59.0 °F - 51.8 °F 77% 29.98 in 6.2 mi West 8.1 mph - N/A   Mostly Cloudy
3:20 PM 60.8 °F - 51.8 °F 72% 29.98 in 6.2 mi WSW 5.8 mph - N/A   Mostly Cloudy
3:50 PM 59.0 °F - 50.0 °F 72% 29.98 in - West 5.8 mph - N/A   Unknown
4:20 PM 57.2 °F - 53.6 °F 88% 30.01 in 6.2 mi South 3.5 mph - N/A Rain Light Rain Showers
4:50 PM 57.2 °F - 53.6 °F 88% 30.01 in 6.2 mi WSW 8.1 mph - N/A Rain Light Rain Showers
5:20 PM 57.2 °F - 51.8 °F 82% 30.01 in 6.2 mi SSW 10.4 mph - N/A   Mostly Cloudy
5:50 PM 57.2 °F - 53.6 °F 88% 30.01 in - South 10.4 mph - N/A   Unknown
6:20 PM 57.2 °F - 51.8 °F 82% 30.01 in 6.2 mi SSW 10.4 mph - N/A   Mostly Cloudy
6:50 PM 57.2 °F - 51.8 °F 82% 30.01 in 6.2 mi SSW 10.4 mph - N/A   Mostly Cloudy
7:20 PM 57.2 °F - 51.8 °F 82% 30.04 in 6.2 mi SSW 9.2 mph - N/A   Mostly Cloudy
7:50 PM 57.2 °F - 51.8 °F 82% 30.04 in 6.2 mi SSW 8.1 mph - N/A   Mostly Cloudy
8:20 PM 55.4 °F - 50.0 °F 82% 30.06 in - SSW 8.1 mph - N/A   Clear
8:50 PM 53.6 °F - 48.2 °F 82% 30.06 in - WSW 9.2 mph - N/A   Clear
9:20 PM 53.6 °F - 48.2 °F 82% 30.09 in - SSW 5.8 mph - N/A   Clear
9:50 PM 53.6 °F - 48.2 °F 82% 30.09 in 6.2 mi South 4.6 mph - N/A   Scattered Clouds
10:20 PM 50.0 °F - 48.2 °F 94% 30.09 in 6.2 mi SW 4.6 mph - N/A   Scattered Clouds
10:50 PM 48.2 °F - 44.6 °F 87% 30.09 in 6.2 mi SSW 5.8 mph - N/A   Scattered Clouds
11:20 PM 46.4 °F 43.5 °F 44.6 °F 93% 30.12 in 6.2 mi SSW 5.8 mph - N/A   Mostly Cloudy
11:50 PM 46.4 °F 45.2 °F 46.4 °F 100% 30.12 in 6.2 mi SSW 3.5 mph - N/A   Mostly Cloudy